User: anonymous   Login
Location: Granada
(37.1830°N, 3.6000°W)
Time: 23:22:43
(UTC+01:00)
Language:

Iridium 70 - Orbit

View from above orbital plane
View from above orbital plane
View from above satellite
View from above satellite

Ground track
Ground track

The orbit data is extracted from the following two-line orbital elements,

1 25342U 98032A   14352.29005674  .00000459  00000-0  15673-3 0   901
2 25342 086.3978 245.3387 0002207 101.9166 037.5475 14.34221894868399
Epoch (UTC): 18 December 2014 06:57:40
Eccentricity: 0.0002207
inclination: 86.3978°
perigee height: 776 km
apogee height: 779 km
right ascension of ascending node: 245.3387°
argument of perigee: 101.9166°
revolutions per day: 14.34221894
mean anomaly at epoch: 37.5475°
orbit number at epoch: 86839

The dashed part of the orbit path shows where the satellite is in the earth's shadow,  

DLR